Girona, Spain

6:56 AM CEST on September 20, 2018 (GMT +0200)
Girona

Weather History for LEGE - July, 2018

Change the Weather History Date:

Thursday, July 12, 2018

  Actual Average Record
Temperature  
Mean Temperature 76 °F -  
Max Temperature 90 °F 85 °F 100 °F (2006)
Min Temperature 63 °F 62 °F 55 °F (1996)
Cooling Degree Days 12    
Growing Degree Days 26 (Base 50)    
Moisture  
Dew Point 61 °F    
Average Humidity 66    
Maximum Humidity 100    
Minimum Humidity 26    
Precipitation  
Precipitation 0.00 in 0.06 in - ()
Sea Level Pressure  
Sea Level Pressure 29.97 in    
Wind  
Wind Speed 4 mph ()    
Max Wind Speed 14 mph    
Max Gust Speed -    
Visibility 6.2 miles    
Events      
Averages and records for this station are not official NWS values.
T = Trace of Precipitation, MM = Missing Value Source: Averaged Metar Reports

Daily Weather History Graph

Daily Weather History Graph

Search for Another Location

Airport or City:

Astronomy

Jul. 12, 2018 Rise Set
Actual Time 6:24 AM CEST 9:24 PM CEST
Civil Twilight 5:50 AM CEST 9:57 PM CEST
Nautical Twilight 5:08 AM CEST 10:40 PM CEST
Astronomical Twilight 4:18 AM CEST 11:30 PM CEST
Moon 5:36 AM CEST (7/12) 8:51 PM CEST (7/12)
Length of Visible Light 16h 06m
Length of Day
14h 59m
Waning Crescent, 1% of the Moon is Illuminated
Jul 12
Waning Crescent
Jul 13
New
Jul 19
First Quarter
Jul 27
Full
Aug 4
Last Quarter

Hourly Weather History & Observations

Time (CEST) Temp. Heat Index Dew Point Humidity Pressure Visibility Wind Dir Wind Speed Gust Speed Precip Events Conditions
12:00 AM 70 °F - 67 °F 89% 29.97 in - SW 1.2 mph - -  
12:00 AM 69.8 °F - 69.8 °F 100% 30.01 in 6.2 mi Calm Calm - N/A   Scattered Clouds
12:30 AM 68.0 °F - 68.0 °F 100% 29.98 in 6.2 mi SW 3.5 mph - N/A   Scattered Clouds
1:00 AM 68 °F - 65 °F 85% 29.96 in - West 5.8 mph - -  
1:00 AM 66.2 °F - 66.2 °F 100% 29.98 in 6.2 mi Variable 2.3 mph - N/A   Scattered Clouds
1:30 AM 66.2 °F - 66.2 °F 100% 29.95 in 6.2 mi West 3.5 mph - N/A   Scattered Clouds
2:00 AM 67 °F - 65 °F 90% 29.94 in - NW 5.8 mph - -  
2:30 AM 66.2 °F - 64.4 °F 94% 29.95 in 6.2 mi North 4.6 mph - N/A   Partly Cloudy
3:00 AM 67 °F - 64 °F 88% 29.92 in - NNE 3.5 mph - -  
3:00 AM 66.2 °F - 66.2 °F 100% 29.95 in 6.2 mi ENE 2.3 mph - N/A   Partly Cloudy
3:30 AM 66.2 °F - 66.2 °F 100% 29.95 in 6.2 mi NNW 3.5 mph - N/A   Partly Cloudy
4:00 AM 64.4 °F - 64.4 °F 100% 29.98 in 6.2 mi West 3.5 mph - N/A   Partly Cloudy
4:30 AM 64.4 °F - 64.4 °F 100% 29.98 in 6.2 mi NW 4.6 mph - N/A   Partly Cloudy
5:00 AM 65 °F - 63 °F 91% 29.94 in - NE 3.5 mph - -  
5:30 AM 64.4 °F - 64.4 °F 100% 29.95 in 6.2 mi North 3.5 mph - N/A   Partly Cloudy
6:00 AM 64 °F - 62 °F 92% 29.94 in - Calm Calm - -  
6:00 AM 64.4 °F - 64.4 °F 100% 29.95 in 6.2 mi Variable 1.2 mph - N/A   Partly Cloudy
6:30 AM 64.4 °F - 64.4 °F 100% 29.95 in 6.2 mi Variable 1.2 mph - N/A   Partly Cloudy
7:00 AM 65 °F - 63 °F 89% 29.95 in - NE 4.6 mph - -  
7:00 AM 64.4 °F - 64.4 °F 100% 29.98 in 6.2 mi ENE 3.5 mph - N/A   Partly Cloudy
7:30 AM 64.4 °F - 64.4 °F 100% 29.98 in 6.2 mi Variable 2.3 mph - N/A   Scattered Clouds
8:00 AM 69 °F - 64 °F 77% 29.95 in - NNE 5.8 mph - -  
8:00 AM 68.0 °F - 62.6 °F 83% 29.98 in 6.2 mi North 4.6 mph - N/A   Partly Cloudy
8:30 AM 69.8 °F - 62.6 °F 78% 29.98 in 6.2 mi North 2.3 mph - N/A   Partly Cloudy
9:00 AM 74 °F - 64 °F 62% 29.96 in - NNE 9.2 mph - -  
9:00 AM 73.4 °F - 62.6 °F 69% 29.98 in 6.2 mi NNE 8.1 mph - N/A   Partly Cloudy
9:30 AM 73.4 °F - 62.6 °F 69% 29.98 in 6.2 mi NNE 11.5 mph - N/A   Partly Cloudy
10:00 AM 75 °F - 63 °F 57% 29.96 in - NE 10.4 mph - -  
10:00 AM 73.4 °F - 62.6 °F 69% 29.98 in 6.2 mi NNE 9.2 mph - N/A   Partly Cloudy
10:30 AM 75.2 °F - 62.6 °F 65% 29.98 in 6.2 mi NNE 9.2 mph - N/A   Partly Cloudy
11:00 AM 80 °F - 63 °F 46% 29.96 in - NNE 8.1 mph - -  
11:00 AM 78.8 °F - 62.6 °F 57% 29.98 in 6.2 mi NNE 8.1 mph - N/A   Partly Cloudy
11:30 AM 78.8 °F - 59.0 °F 51% 29.98 in 6.2 mi NNE 8.1 mph - N/A   Partly Cloudy
12:00 PM 80.6 °F 81.5 °F 60.8 °F 51% 29.98 in 6.2 mi North 8.1 mph - N/A   Partly Cloudy
12:30 PM 82.4 °F 82.5 °F 59.0 °F 45% 29.98 in 6.2 mi NNE 6.9 mph - N/A   Partly Cloudy
1:00 PM 84.2 °F 83.8 °F 59.0 °F 42% 29.98 in 6.2 mi NNE 5.8 mph - N/A   Partly Cloudy
1:30 PM 86.0 °F 85.4 °F 59.0 °F 40% 29.98 in 6.2 mi NE 2.3 mph - N/A   Partly Cloudy
2:00 PM 88 °F - 59 °F 27% 29.94 in - ENE 5.8 mph - -  
2:00 PM 87.8 °F 87.1 °F 59.0 °F 38% 29.98 in 6.2 mi NNE 5.8 mph - N/A   Partly Cloudy
3:00 PM 90 °F - 60 °F 27% 29.93 in - East 4.6 mph - -  
3:00 PM 87.8 °F 87.1 °F 59.0 °F 38% 29.95 in 6.2 mi NE 4.6 mph - N/A   Partly Cloudy
3:30 PM 87.8 °F 86.5 °F 57.2 °F 35% 29.95 in 6.2 mi SE 11.5 mph - N/A   Scattered Clouds
4:00 PM 84.2 °F 83.0 °F 55.4 °F 37% 29.98 in 6.2 mi SSE 13.8 mph - N/A   Scattered Clouds
4:30 PM 84.2 °F 83.5 °F 57.2 °F 40% 29.98 in 6.2 mi SSE 13.8 mph - N/A   Scattered Clouds
5:00 PM 86 °F - 57 °F 27% 29.95 in - SSE 11.5 mph - -  
5:00 PM 84.2 °F 83.5 °F 57.2 °F 40% 29.98 in 6.2 mi SE 10.4 mph - N/A   Scattered Clouds
5:30 PM 84.2 °F 83.5 °F 57.2 °F 40% 29.98 in 6.2 mi SSE 13.8 mph - N/A   Scattered Clouds
6:00 PM 82.4 °F 81.7 °F 55.4 °F 39% 30.01 in 6.2 mi SSE 9.2 mph - N/A   Scattered Clouds
6:30 PM 82.4 °F 81.7 °F 55.4 °F 39% 30.01 in 6.2 mi East 4.6 mph - N/A   Scattered Clouds
7:00 PM 85 °F - 56 °F 26% 29.96 in - South 4.6 mph - -  
7:00 PM 82.4 °F 81.7 °F 55.4 °F 39% 29.98 in 6.2 mi South 5.8 mph - N/A   Partly Cloudy
7:30 PM 80.6 °F 81.1 °F 59.0 °F 48% 30.01 in 6.2 mi NNE 11.5 mph - N/A   Partly Cloudy
8:00 PM 80 °F - 59 °F 38% 29.97 in - NNE 10.4 mph - -  
9:00 PM 78.8 °F - 59.0 °F 51% 30.01 in 6.2 mi NE 5.8 mph - N/A   Partly Cloudy
9:30 PM 75.2 °F - 57.2 °F 53% 30.01 in 6.2 mi SE 3.5 mph - N/A   Partly Cloudy
10:00 PM 75 °F - 56 °F 41% 29.99 in - SE 4.6 mph - -  
10:30 PM 71.6 °F - 55.4 °F 57% 30.04 in 6.2 mi Calm Calm - N/A   Partly Cloudy
11:00 PM 69.8 °F - 57.2 °F 64% 30.04 in 6.2 mi SW 3.5 mph - N/A   Partly Cloudy
11:30 PM 69.8 °F - 59.0 °F 68% 30.04 in 6.2 mi WNW 3.5 mph - N/A   Partly Cloudy